Weather History for Auburn-Lewiston, ME

Change the Weather History Date:

Wednesday, February 27, 2013

  Actual Average Record
Temperature  
Mean Temperature 30 °F -  
Max Temperature 35 °F 33 °F 48 °F (2002)
Min Temperature 26 °F 16 °F -9 °F (2003)
Degree Days  
Heating Degree Days 34    
Moisture  
Dew Point 28 °F    
Average Humidity 87    
Maximum Humidity 93    
Minimum Humidity 75    
Precipitation  
Precipitation 0.00 in - - ()
Sea Level Pressure  
Sea Level Pressure 30.00 in    
Wind  
Wind Speed 6 mph (ENE)    
Max Wind Speed 15 mph    
Max Gust Speed 28 mph    
Visibility 6 miles    
Events      
Averages and records for this station are not official NWS values.
T = Trace of Precipitation, MM = Missing Value Source: NWS Daily Summary

Daily Weather History Graph

Daily Weather History Graph

Search for Another Location

Airport:

Trip Planner

Search our weather history database for the weather conditions in past years. The results will help you decide how hot, cold, wet, or windy it might be!

Date:

Astronomy

Feb. 27, 2013 Rise Set
Actual Time 6:21 AM EST 5:27 PM EST
Civil Twilight 5:52 AM EST 5:56 PM EST
Nautical Twilight 5:18 AM EST 6:29 PM EST
Astronomical Twilight 4:45 AM EST 7:03 PM EST
Moon 7:52 PM EST 6:48 AM EST
Length of Visible Light 12h 04m
Length of Day
11h 06m
Waning Gibbous, 96% of the Moon is Illuminated
Feb 27
Waning Gibbous
Mar 4
Last Quarter
Mar 11
New
Mar 19
First Quarter
Mar 27
Full

Hourly Weather History & Observations

Time (EST) Temp. Windchill Dew Point Humidity Pressure Visibility Wind Dir Wind Speed Gust Speed Precip Events Conditions
12:15 AM 28.4 °F - 26.6 °F 93% 30.23 in 10.0 mi Calm Calm - N/A   Clear
12:35 AM 28.4 °F - 24.8 °F 86% 30.22 in 10.0 mi Calm Calm - N/A   Clear
12:55 AM 28.4 °F - 24.8 °F 86% 30.22 in 10.0 mi Calm Calm - N/A   Clear
1:15 AM 26.6 °F - 24.8 °F 93% 30.22 in 10.0 mi Calm Calm - N/A   Clear
1:35 AM 28.4 °F - 24.8 °F 86% 30.22 in 10.0 mi Calm Calm - N/A   Clear
1:55 AM 30.2 °F 26.7 °F 26.6 °F 86% 30.21 in 10.0 mi ENE 3.5 mph - N/A   Clear
2:15 AM 28.4 °F 24.6 °F 24.8 °F 86% 30.20 in 10.0 mi NE 3.5 mph - N/A   Clear
2:35 AM 28.4 °F 24.6 °F 24.8 °F 86% 30.19 in 10.0 mi NE 3.5 mph - N/A   Clear
2:55 AM 28.4 °F 23.3 °F 24.8 °F 86% 30.18 in 10.0 mi NE 4.6 mph - N/A   Clear
3:15 AM 28.4 °F 24.6 °F 24.8 °F 86% 30.19 in 10.0 mi NNE 3.5 mph - N/A   Clear
3:35 AM 28.4 °F 23.3 °F 24.8 °F 86% 30.18 in 10.0 mi NE 4.6 mph - N/A   Partly Cloudy
3:55 AM 28.4 °F 23.3 °F 24.8 °F 86% 30.19 in 10.0 mi NNE 4.6 mph - N/A   Scattered Clouds
4:35 AM 28.4 °F 21.2 °F 24.8 °F 86% 30.18 in 10.0 mi NNE 6.9 mph - N/A   Overcast
4:55 AM 28.4 °F 21.2 °F 24.8 °F 86% 30.18 in 10.0 mi NNE 6.9 mph - N/A   Overcast
5:35 AM 30.2 °F 24.3 °F 24.8 °F 80% 30.17 in 10.0 mi NE 5.8 mph - N/A   Overcast
5:55 AM 30.2 °F 22.6 °F 24.8 °F 80% 30.14 in 4.0 mi NE 8.1 mph - N/A   Overcast
6:15 AM 30.2 °F 23.4 °F 24.8 °F 80% 30.14 in 10.0 mi NE 6.9 mph - N/A   Overcast
6:55 AM 30.2 °F 23.4 °F 26.6 °F 86% 30.14 in 3.0 mi NE 6.9 mph - N/A   Overcast
7:15 AM 30.2 °F 25.4 °F 28.4 °F 93% 30.13 in 2.5 mi NNE 4.6 mph - N/A   Overcast
7:35 AM 30.2 °F 23.4 °F 28.4 °F 93% 30.12 in 8.0 mi NNE 6.9 mph - N/A   Overcast
7:55 AM 30.2 °F 24.3 °F 28.4 °F 93% 30.12 in 10.0 mi NNE 5.8 mph - N/A   Overcast
8:15 AM 32.0 °F 26.4 °F 28.4 °F 87% 30.12 in 9.0 mi NNE 5.8 mph - N/A   Overcast
8:35 AM 32.0 °F 25.6 °F 28.4 °F 87% 30.11 in 5.0 mi NE 6.9 mph - N/A   Overcast
8:55 AM 33.8 °F 28.6 °F 28.4 °F 81% 30.10 in 4.0 mi NE 5.8 mph - N/A   Overcast
9:15 AM 33.8 °F 27.7 °F 28.4 °F 81% 30.09 in 3.0 mi ENE 6.9 mph - N/A   Overcast
9:35 AM 33.8 °F 27.0 °F 30.2 °F 87% 30.07 in 7.0 mi NE 8.1 mph - N/A   Overcast
10:15 AM 33.8 °F 27.0 °F 30.2 °F 87% 30.06 in 10.0 mi ENE 8.1 mph - N/A   Overcast
10:35 AM 35.6 °F 29.2 °F 30.2 °F 81% 30.05 in 10.0 mi East 8.1 mph - N/A   Overcast
10:55 AM 35.6 °F 29.2 °F 30.2 °F 81% 30.05 in 10.0 mi East 8.1 mph - N/A   Overcast
11:15 AM 35.6 °F 28.6 °F 30.2 °F 81% 30.04 in 10.0 mi East 9.2 mph - N/A   Overcast
11:35 AM 35.6 °F 28.0 °F 28.4 °F 75% 30.03 in 10.0 mi East 10.4 mph 16.1 mph N/A   Overcast
11:55 AM 35.6 °F 28.6 °F 28.4 °F 75% 30.02 in 10.0 mi East 9.2 mph 19.6 mph N/A   Overcast
12:15 PM 35.6 °F 26.6 °F 30.2 °F 81% 30.00 in 7.0 mi East 13.8 mph 18.4 mph N/A   Overcast
12:35 PM 35.6 °F 28.6 °F 30.2 °F 81% 29.99 in 4.0 mi ENE 9.2 mph 16.1 mph N/A   Overcast
12:55 PM 33.8 °F 27.7 °F 30.2 °F 87% 29.99 in 2.5 mi East 6.9 mph 16.1 mph N/A   Overcast
1:15 PM 33.8 °F 25.8 °F 30.2 °F 87% 29.97 in 3.0 mi East 10.4 mph - N/A   Overcast
1:35 PM 33.8 °F 25.3 °F 30.2 °F 87% 29.97 in 5.0 mi East 11.5 mph - N/A   Mostly Cloudy
1:55 PM 33.8 °F 25.8 °F 30.2 °F 87% 29.96 in 10.0 mi East 10.4 mph - N/A   Mostly Cloudy
2:15 PM 33.8 °F 24.8 °F 30.2 °F 87% 29.95 in 3.0 mi ENE 12.7 mph 20.7 mph N/A   Mostly Cloudy
2:35 PM 33.8 °F 26.4 °F 30.2 °F 87% 29.94 in 6.0 mi ENE 9.2 mph 19.6 mph N/A   Overcast
2:55 PM 33.8 °F 25.8 °F 30.2 °F 87% 29.94 in 3.0 mi East 10.4 mph 17.3 mph N/A   Overcast
3:15 PM 33.8 °F 25.3 °F 30.2 °F 87% 29.94 in 1.8 mi East 11.5 mph 19.6 mph N/A   Overcast
3:35 PM 33.8 °F 26.4 °F 30.2 °F 87% 29.92 in 1.2 mi East 9.2 mph - N/A   Overcast
3:55 PM 32.0 °F 25.6 °F 30.2 °F 93% 29.91 in 0.5 mi ENE 6.9 mph - N/A   Overcast
4:15 PM 32.0 °F 22.5 °F 30.2 °F 93% 29.91 in 1.5 mi East 12.7 mph 19.6 mph N/A   Overcast
4:35 PM 32.0 °F 21.6 °F 28.4 °F 87% 29.90 in 0.8 mi ENE 15.0 mph 26.5 mph N/A   Overcast
5:35 PM 32.0 °F 22.5 °F 28.4 °F 87% 29.89 in 1.2 mi ENE 12.7 mph 18.4 mph N/A   Overcast
5:55 PM 32.0 °F 23.6 °F 28.4 °F 87% 29.88 in 3.0 mi ENE 10.4 mph 17.3 mph N/A   Overcast
6:15 PM 32.0 °F 24.2 °F 28.4 °F 87% 29.88 in 1.8 mi ENE 9.2 mph 16.1 mph N/A   Overcast
6:35 PM 30.2 °F 22.6 °F 28.4 °F 93% 29.87 in 1.2 mi ENE 8.1 mph - N/A   Overcast
6:55 PM 30.2 °F 22.6 °F 28.4 °F 93% 29.86 in 1.5 mi ENE 8.1 mph - N/A   Overcast
7:15 PM 32.0 °F 23.0 °F 28.4 °F 87% 29.84 in 1.8 mi ENE 11.5 mph 16.1 mph N/A   Overcast
7:35 PM 32.0 °F 23.6 °F 28.4 °F 87% 29.83 in 1.2 mi NE 10.4 mph - N/A   Overcast
7:55 PM 32.0 °F 24.2 °F 30.2 °F 93% 29.82 in 1.5 mi NE 9.2 mph 18.4 mph N/A   Overcast
8:15 PM 32.0 °F 21.6 °F 30.2 °F 93% 29.80 in 1.8 mi NE 15.0 mph 27.6 mph N/A   Overcast
8:35 PM 32.0 °F 22.5 °F 28.4 °F 87% 29.79 in 2.5 mi ENE 12.7 mph 20.7 mph N/A   Overcast
9:15 PM 32.0 °F 21.6 °F 28.4 °F 87% 29.76 in 1.8 mi NE 15.0 mph 19.6 mph N/A   Overcast
9:35 PM 30.2 °F 19.8 °F 28.4 °F 93% 29.74 in 1.0 mi NE 13.8 mph 21.9 mph N/A   Overcast
9:55 PM 30.2 °F 19.8 °F 28.4 °F 93% 29.73 in 1.5 mi NE 13.8 mph 20.7 mph N/A   Overcast
10:15 PM 30.2 °F 20.2 °F 28.4 °F 93% 29.71 in 1.2 mi NE 12.7 mph 21.9 mph N/A   Overcast
10:35 PM 30.2 °F 22.6 °F 28.4 °F 93% 29.71 in 1.8 mi NE 8.1 mph - N/A   Overcast
10:55 PM 30.2 °F 23.4 °F 28.4 °F 93% 29.71 in 1.5 mi NE 6.9 mph - N/A   Overcast
11:35 PM 30.2 °F 20.8 °F 28.4 °F 93% 29.69 in 1.2 mi NNE 11.5 mph - N/A   Overcast
11:55 PM 30.2 °F 21.9 °F 28.4 °F 93% 29.68 in 1.8 mi NNE 9.2 mph - N/A   Overcast